OK1PHU-5 Weather Reports


time (UTC)temp
C
wind
direction
speed
KPH
gust
KPH
rain 1hr
cm
rain 24hr
cm
rain mn
cm
humidity
%
barometer
mb
20260502195720 -17 0 0.0 0.0 0.00 0.00 0.00 76 1017.5
20260502194720 -17 0 0.0 0.0 0.00 0.00 0.00 76 1017.8
20260502193717 -17 0 0.0 0.0 0.00 0.00 0.00 75 1017.9
20260502192717 -17 0 0.0 0.0 0.00 0.00 0.00 75 1017.8
20260502191717 -17 0 0.0 0.0 0.00 0.00 0.00 72 1017.7
20260502190716 -17 0 0.0 0.0 0.00 0.00 0.00 73 1017.7
20260502185717 -17 0 0.0 0.0 0.00 0.00 0.00 72 1017.6
20260502184717 -17 0 0.0 0.0 0.00 0.00 0.00 69 1017.5
20260502182713 -17 0 0.0 0.0 0.00 0.00 0.00 61 1016.8
20260502181713 -17 0 0.0 0.0 0.00 0.00 0.00 57 1016.6
20260502180713 -17 0 0.0 0.0 0.00 0.00 0.00 56 1016.3
20260502162707 -17 0 0.0 0.0 0.00 0.00 0.00 55 1016.5
20260502161707 -17 0 0.0 0.0 0.00 0.00 0.00 54 1016.6
20260502160707 -17 0 0.0 0.0 0.00 0.00 0.00 56 1016.6
20260502151703 -17 0 0.0 0.0 0.00 0.00 0.00 56 1017.2
20260502150703 -17 0 0.0 0.0 0.00 0.00 0.00 56 1017.1
20260502130657 -17 0 0.0 0.0 0.00 0.00 0.00 54 1018.1
20260502123654 -17 0 0.0 0.0 0.00 0.00 0.00 54 1018.9
20260502122654 -17 0 0.0 0.0 0.00 0.00 0.00 54 1019.0
20260502121654 -17 0 0.0 0.0 0.00 0.00 0.00 56 1018.9
20260502120654 -17 0 0.0 0.0 0.00 0.00 0.00 53 1018.9
20260502115654 -17 0 0.0 0.0 0.00 0.00 0.00 57 1019.0
20260502114654 -17 0 0.0 0.0 0.00 0.00 0.00 57 1019.2
20260502113650 -17 0 0.0 0.0 0.00 0.00 0.00 55 1019.4
20260502112651 -17 0 0.0 0.0 0.00 0.00 0.00 53 1019.2
20260502111650 -17 0 0.0 0.0 0.00 0.00 0.00 54 1019.2
20260502110650 -17 0 0.0 0.0 0.00 0.00 0.00 56 1019.1
20260502105650 -17 0 0.0 0.0 0.00 0.00 0.00 50 1019.2
20260502104650 -17 0 0.0 0.0 0.00 0.00 0.00 52 1019.3
20260502103647 -17 0 0.0 0.0 0.00 0.00 0.00 53 1019.2
20260502102647 -17 0 0.0 0.0 0.00 0.00 0.00 50 1019.7
20260502101647 -17 0 0.0 0.0 0.00 0.00 0.00 49 1019.5
20260502100647 -17 0 0.0 0.0 0.00 0.00 0.00 50 1019.6
20260502090644 -17 0 0.0 0.0 0.00 0.00 0.00 47 1020.1
20260502070637 -17 0 0.0 0.0 0.00 0.00 0.00 46 1020.0
20260502065637 -17 0 0.0 0.0 0.00 0.00 0.00 45 1020.3
20260502064637 -17 0 0.0 0.0 0.00 0.00 0.00 45 1019.9
20260502063634 -17 0 0.0 0.0 0.00 0.00 0.00 51 1019.8
20260502062634 -17 0 0.0 0.0 0.00 0.00 0.00 50 1019.8
20260502061634 -17 0 0.0 0.0 0.00 0.00 0.00 51 1020.3
20260502060634 -17 0 0.0 0.0 0.00 0.00 0.00 57 1020.9
20260502055634 -17 0 0.0 0.0 0.00 0.00 0.00 59 1021.5
20260502054634 -17 0 0.0 0.0 0.00 0.00 0.00 61 1021.9
20260502053631 -17 0 0.0 0.0 0.00 0.00 0.00 64 1022.0
20260502052631 -17 0 0.0 0.0 0.00 0.00 0.00 70 1022.7
20260502051631 -17 0 0.0 0.0 0.00 0.00 0.00 74 1023.3
20260502050631 -17 0 0.0 0.0 0.00 0.00 0.00 80 1023.6
20260502045631 -17 0 0.0 0.0 0.00 0.00 0.00 86 1023.8
20260502044631 -17 0 0.0 0.0 0.00 0.00 0.00 92 1024.6
20260502043628 -17 0 0.0 0.0 0.00 0.00 0.00 99 1024.9
20260502042628 -17 0 0.0 0.0 0.00 0.00 0.00 99 1025.6
20260502041628 -17 0 0.0 0.0 0.00 0.00 0.00 99 1025.7
20260502040627 -17 0 0.0 0.0 0.00 0.00 0.00 99 1025.6
20260502035627 -17 0 0.0 0.0 0.00 0.00 0.00 99 1025.6
20260502034627 -17 0 0.0 0.0 0.00 0.00 0.00 99 1025.6
20260502033624 -17 0 0.0 0.0 0.00 0.00 0.00 99 1025.7
20260502032624 -17 0 0.0 0.0 0.00 0.00 0.00 99 1025.6
20260502031624 -17 0 0.0 0.0 0.00 0.00 0.00 99 1025.6
20260502030624 -17 0 0.0 0.0 0.00 0.00 0.00 99 1025.4
20260502025624 -17 0 0.0 0.0 0.00 0.00 0.00 99 1025.6
20260502024624 -17 0 0.0 0.0 0.00 0.00 0.00 99 1025.7
20260502022621 -17 0 0.0 0.0 0.00 0.00 0.00 99 1025.7
20260502021621 -17 0 0.0 0.0 0.00 0.00 0.00 99 1025.7
20260502020621 -17 0 0.0 0.0 0.00 0.00 0.00 99 1025.6
20260502015621 -17 0 0.0 0.0 0.00 0.00 0.00 99 1025.6
20260502014621 -17 0 0.0 0.0 0.00 0.00 0.00 99 1025.6
20260502013618 -17 0 0.0 0.0 0.00 0.00 0.00 99 1025.7
20260502012618 -17 0 0.0 0.0 0.00 0.00 0.00 99 1025.7
20260502011618 -17 0 0.0 0.0 0.00 0.00 0.00 99 1025.8
20260502010618 -17 0 0.0 0.0 0.00 0.00 0.00 99 1025.8
20260502005618 -17 0 0.0 0.0 0.00 0.00 0.00 99 1025.8
20260502004618 -17 0 0.0 0.0 0.00 0.00 0.00 99 1025.7
20260502003614 -17 0 0.0 0.0 0.00 0.00 0.00 99 1025.8
20260502002614 -17 0 0.0 0.0 0.00 0.00 0.00 99 1025.8
20260502001614 -17 0 0.0 0.0 0.00 0.00 0.00 99 1025.8
20260502000614 -17 0 0.0 0.0 0.00 0.00 0.00 99 1025.7
20260501235614 -17 0 0.0 0.0 0.00 0.00 0.00 99 1025.8
20260501234614 -17 0 0.0 0.0 0.00 0.00 0.00 99 1025.7
20260501233611 -17 0 0.0 0.0 0.00 0.00 0.00 99 1025.7
20260501232611 -17 0 0.0 0.0 0.00 0.00 0.00 99 1025.8
20260501231611 -17 0 0.0 0.0 0.00 0.00 0.00 99 1025.7
20260501230611 -17 0 0.0 0.0 0.00 0.00 0.00 99 1025.8
20260501225611 -17 0 0.0 0.0 0.00 0.00 0.00 99 1025.8
20260501224611 -17 0 0.0 0.0 0.00 0.00 0.00 99 1025.7
20260501223608 -17 0 0.0 0.0 0.00 0.00 0.00 99 1025.8
20260501222608 -17 0 0.0 0.0 0.00 0.00 0.00 99 1025.9
20260501221608 -17 0 0.0 0.0 0.00 0.00 0.00 99 1025.7
20260501220608 -17 0 0.0 0.0 0.00 0.00 0.00 99 1025.8
20260501215608 -17 0 0.0 0.0 0.00 0.00 0.00 98 1025.6
20260501214608 -17 0 0.0 0.0 0.00 0.00 0.00 99 1025.6
20260501213605 -17 0 0.0 0.0 0.00 0.00 0.00 98 1025.6
20260501212605 -17 0 0.0 0.0 0.00 0.00 0.00 96 1025.5
20260501211605 -17 0 0.0 0.0 0.00 0.00 0.00 97 1025.4
20260501210605 -17 0 0.0 0.0 0.00 0.00 0.00 94 1025.2
20260501205605 -17 0 0.0 0.0 0.00 0.00 0.00 94 1025.4
20260501204605 -17 0 0.0 0.0 0.00 0.00 0.00 94 1025.4
20260501203601 -17 0 0.0 0.0 0.00 0.00 0.00 93 1025.5
20260501202601 -17 0 0.0 0.0 0.00 0.00 0.00 90 1024.9
20260501201601 -17 0 0.0 0.0 0.00 0.00 0.00 87 1024.9
20260501200601 -17 0 0.0 0.0 0.00 0.00 0.00 88 1024.8